Location: Ailingen
(47.6833°N, 9.5000°E)
Time: 12:12:43
(UTC+00:00)

Meteor 2-3 Rocket - Pass Details

Date: 18 November 2025
Orbit: 841 x 884 km, 81.2° (Epoch: 11 December)

Event Time Altitude Azimuth Distance (km) Brightness Sun altitude
Rises 18:29:53 0° 345° (NNW) 3,464 7.1 -28.0°
Reaches altitude 10° 18:32:23 10° 341° (NNW) 2,515 6.4 -28.4°
Maximum altitude 18:37:56 56° 265° (W) 1,017 4.3 -29.4°
Drops below altitude 10° 18:43:23 10° 188° (S) 2,470 6.1 -30.3°
Sets 18:45:49 0° 185° (S) 3,396 6.9 -30.7°
